If you wish to contribute or participate in the discussions about articles you are invited to join SKYbrary as a registered user

 Actions

Alcantarilla Airport

From SKYbrary Wiki

LERI
Airport
ICAO: LERI
Summary
Name Alcantarilla Airport
Region Europe
Territory Spain ES.gif
Location
Serving Murcia
Elevation 76.2 m
250 ft
250 ft76.2 m
Type medium airport
Coordinates 37° 57' 3.9996", -1° 13' 49.1484"
Runways
Designator Length Width Surface ROPS
7/25 938 m3,077.428 ft 45 m147.638 ft ASP /


METAR
Observation LERI 201700Z 06012KT CAVOK 30/13 Q1016 NOSIG
Station Murcia / Alcantarilla
Date/Time 20 June 2018 17:00:00
Wind direction 60°
Wind speed 12 kts
Lowest cloud amount clouds and visibility OK
Temperature 30°C
Dew point 13°C
Humidity 35%
QNH 1016 hPa
Weather condition n/a